SCP
1 1 1 0 0 0 0 0 0 1 2 2 2 2 3 3 3 3 3 4 5 7 9 9 9 9 8 7 6 6 5 5 5 6 6 5 4 3 3 3 4 4 3 3
1 1 1 0 0 0 0 0 0 1 2 3 3 2 3 3 3 4 4 4 6 7 9 10 10 10 9 7 6 6 6 5 5 6 6 5 4 4 4 4 4 4 4 3
1 1 1 1 0 0 0 1 1 2 3 3 3 3 3 3 4 4 5 6 7 8 9 10 10 9 9 8 7 7 7 6 6 6 6 5 4 4 4 4 4 4 4 4
1 1 1 1 1 1 1 1 2 3 3 4 4 3 3 3 4 5 6 7 8 9 9 10 10 9 8 8 8 7 7 7 7 7 6 6 5 5 6 6 6 5 5 5
1 1 1 1 1 1 1 2 3 4 4 4 4 3 3 3 4 5 6 7 8 8 9 10 10 8 7 7 6 6 6 6 6 6 5 5 5 6 7 6 6 5 5 5
2 1 1 1 1 1 1 2 3 4 3 4 3 3 3 3 4 5 6 6 6 6 6 7 7 6 5 4 4 4 4 4 4 4 4 5 5 6 6 5 4 4 4 4
2 2 2 2 2 2 2 3 3 3 3 3 3 3 3 3 3 4 4 3 3 3 3 4 4 3 2 2 2 2 3 3 3 3 3 4 4 4 4 3 3 3 3 3
2 2 2 2 2 2 3 3 3 3 3 4 4 4 4 3 3 2 2 2 2 1 2 2 2 1 1 1 1 1 1 1 1 1 2 2 2 2 2 2 2 2 2 2
3 3 3 3 3 3 3 3 2 3 3 4 4 4 3 3 2 2 2 1 1 1 1 1 1 1 1 1 0 0 0 0 0 0 0 0 0 0 1 1 1 1 1 1
3 3 3 3 3 2 2 2 2 2 3 4 4 3 3 3 2 2 1 1 1 1 1 0 0 0 0 0 0 0 0 0 0 0 0 0 0 0 0 0 0 1 1 1
2 2 2 2 2 2 2 2 2 3 3 3 3 3 2 2 2 2 2 1 1 1 0 0 0 0 0 0 0 0 0 0 0 0 0 0 0 0 0 0 0 0 0 0
1 1 1 2 2 2 2 2 3 3 3 4 4 3 3 2 2 2 2 1 1 1 0 0 0 0 0 0 0 0 0 0 0 0 0 0 0 0 0 0 0 0 0 0
1 1 1 2 2 2 2 3 3 4 4 4 3 3 3 2 2 1 1 1 1 1 0 0 0 0 0 0 0 0 0 0 0 0 0 0 0 0 0 0 0 0 0 0
1 1 1 2 2 2 3 3 3 3 4 3 3 2 2 1 1 1 0 0 0 0 0 0 0 0 0 0 0 0 0 0 0 0 0 0 0 0 0 0 0 0 0 0
1 1 1 2 2 2 2 2 3 3 2 2 2 1 1 1 0 0 0 0 0 0 0 0 0 0 0 0 0 0 0 0 0 0 0 0 0 0 0 0 0 0 0 0
1 1 1 1 1 2 2 1 1 1 1 1 1 1 0 0 0 0 0 0 0 0 0 0 0 0 0 0 0 0 0 0 0 0 0 0 0 0 0 0 0 0 0 0
1 1 1 1 1 1 1 1 0 0 0 0 0 0 0 0 0 0 0 0 0 0 0 0 0 0 0 1 1 0 0 0 0 0 0 0 0 0 0 0 0 0 0 0
1 1 1 0 0 0 0 0 0 0 0 0 0 0 0 0 0 0 0 0 0 0 0 0 0 0 0 0 1 0 0 0 0 0 0 0 0 0 0 0 0 0 0 0
0 0 0 0 0 0 0 0 0 0 0 0 0 0 0 0 0 0 0 0 1 1 1 0 0 0 0 0 0 0 0 0 0 0 0 0 0 0 0 0 0 0 0 0
0 0 0 0 0 0 0 0 0 0 0 0 0 0 0 0 0 0 0 1 1 1 1 0 0 0 0 0 0 0 0 0 0 0 0 0 0 0 0 0 0 0 0 0
0 0 0 0 0 0 0 0 0 0 0 0 0 0 0 0 0 0 0 1 1 1 1 0 0 0 0 0 0 0 0 0 0 0 0 0 0 0 0 0 0 0 0 0
0 0 0 0 0 0 0 0 0 0 0 0 0 0 0 0 0 0 0 1 1 0 0 0 0 0 0 0 0 0 0 0 0 0 0 0 0 0 0 0 0 0 0 0
0 0 0 0 0 0 0 0 0 0 0 0 0 0 1 0 0 0 0 0 0 0 0 0 0 0 0 0 0 0 0 0 0 0 0 0 0 0 0 0 0 0 0 0
0 0 0 0 0 0 0 0 0 0 1 1 1 1 1 1 1 0 0 0 0 0 0 0 0 0 0 0 0 0 0 0 0 0 0 0 0 0 0 0 0 0 0 0
0 0 0 0 0 0 0 0 0 1 1 1 1 1 1 1 1 0 0 0 0 0 0 0 0 0 0 0 0 0 0 0 0 0 0 0 0 0 0 0 0 0 0 0
0 0 0 0 0 0 0 0 1 1 1 1 1 1 1 1 1 0 0 0 0 0 0 0 0 0 0 0 0 0 0 0 0 0 0 0 0 0 0 0 0 0 0 0
0 0 0 0 1 0 0 0 0 1 1 1 1 1 1 1 0 0 0 0 0 0 0 0 0 0 0 0 0 0 0 0 0 0 0 0 0 0 0 0 0 0 0 0
Wind_Speed
14 9 10 12 15 15 11 10 7 4 3 7 8 6 5 3 4 5 5 6 6 8 8 8 7 7 7 7 7 8 8 8 7 7 7 7 7 7 7 7 9 8 7 7
14 13 13 14 14 13 11 9 8 4 5 10 9 6 6 5 5 5 6 5 5 6 7 7 6 6 5 4 5 5 5 5 5 5 4 5 5 5 5 6 6 6 7 7
13 13 12 13 10 10 9 7 5 1 7 12 10 7 7 7 7 7 7 7 7 7 6 6 6 5 5 5 4 5 4 3 3 2 2 0 2 2 2 3 4 5 5 5
12 10 14 7 5 5 5 3 2 7 10 12 13 10 9 9 10 11 11 10 10 9 9 9 8 8 7 7 7 7 6 5 5 5 5 3 3 3 2 1 1 2 3 3
9 11 10 6 2 3 2 1 4 9 13 15 14 13 11 11 11 12 12 12 12 12 12 12 11 10 11 11 11 11 11 9 9 8 6 5 5 4 3 3 2 3 3 3
10 9 6 2 4 6 4 1 4 9 12 16 13 8 8 11 12 13 13 13 13 14 14 13 12 11 12 12 11 11 10 9 8 8 7 6 5 5 4 3 3 3 4 3
11 7 2 4 4 3 2 3 4 8 10 11 8 10 14 14 14 14 14 14 13 13 13 12 11 11 12 11 11 10 9 9 8 6 5 5 5 4 3 3 3 3 4 4
8 7 2 6 5 3 2 2 5 10 12 15 18 18 17 16 14 14 14 14 13 12 12 10 10 10 11 10 8 7 7 6 6 5 6 5 4 3 3 3 4 3 2 3
2 3 5 7 7 4 2 2 7 12 17 19 20 19 17 15 14 13 13 12 11 12 11 10 9 9 10 8 6 6 5 4 3 3 2 3 3 4 3 3 3 4 5 5
1 4 4 5 6 4 1 4 7 12 17 18 18 17 16 14 13 12 11 10 10 10 10 8 8 8 7 6 5 5 4 3 2 2 2 1 2 3 3 3 3 4 4 5
4 4 5 6 3 1 5 7 9 13 16 17 18 17 15 12 12 11 10 9 8 8 7 7 6 6 6 6 5 5 5 4 4 4 2 1 2 2 2 1 1 1 2 3
4 4 4 4 3 6 10 11 13 16 16 16 16 16 15 12 11 10 10 8 7 7 6 6 6 5 5 5 5 5 6 6 6 5 3 3 3 3 2 3 4 6 5 3
5 5 7 8 8 11 13 15 16 16 17 16 15 15 14 12 10 9 8 8 7 6 5 5 5 5 5 4 4 4 5 5 5 6 6 5 5 5 4 3 3 5 5 4
7 7 10 11 12 14 17 18 18 18 17 16 14 14 13 12 10 9 8 7 6 5 5 5 4 5 4 3 3 4 5 5 4 4 5 6 6 6 6 6 5 3 2 4
9 10 13 14 15 16 16 17 17 16 15 15 13 12 11 10 9 8 7 6 5 5 5 5 5 5 5 5 5 6 6 5 4 5 7 6 6 6 6 7 7 6 5 4
12 14 15 16 16 16 16 16 15 15 14 13 11 10 10 9 7 6 4 3 3 3 3 3 4 4 4 5 6 6 5 5 5 6 7 6 6 7 7 7 7 7 7 8
12 13 14 14 15 15 15 14 13 12 11 10 9 8 7 6 5 4 3 2 3 2 2 3 3 3 4 5 6 7 7 6 6 6 5 6 7 7 7 7 7 8 7 7
13 14 13 13 12 13 13 12 11 9 8 7 7 6 4 4 3 3 1 1 2 2 3 3 3 3 4 6 5 6 7 7 6 6 6 6 6 7 7 7 8 9 8 9
15 14 13 12 11 10 9 8 7 7 6 5 4 3 3 2 2 1 0 1 1 2 3 4 2 3 4 6 6 5 6 6 6 6 6 6 6 7 7 7 8 8 8 8
13 12 12 10 9 8 7 6 5 5 4 4 3 3 2 1 1 1 3 3 2 2 3 4 3 4 5 6 7 6 6 6 7 6 6 6 7 7 6 7 8 8 8 8
10 9 8 7 6 6 5 4 4 3 3 2 1 1 1 1 1 1 1 3 4 4 3 4 3 4 5 6 7 5 5 6 6 6 6 6 6 6 6 7 7 7 7 7
6 5 5 5 4 3 2 2 2 2 2 1 2 2 1 1 2 4 5 4 5 3 3 5 5 7 7 7 4 5 6 6 6 5 5 5 5 6 6 7 6 6 7 7
5 5 5 4 3 2 2 2 3 3 2 2 2 2 2 2 1 2 4 4 5 5 5 6 6 6 9 5 4 5 6 6 5 5 5 5 5 5 5 6 6 6 6 7
4 3 3 4 3 3 3 3 3 2 2 1 2 2 2 2 4 6 6 7 7 5 6 5 3 5 5 3 4 5 5 5 5 5 5 5 5 5 6 6 7 7 7 8
2 2 2 3 3 2 2 1 1 2 2 2 3 4 3 4 5 5 6 7 5 3 5 5 1 3 3 4 5 4 4 4 5 5 5 5 6 6 6 7 7 7 8 8
1 2 2 2 2 2 2 2 2 2 1 1 3 3 4 5 5 5 4 5 5 3 3 3 2 1 2 4 4 3 3 3 3 4 5 6 7 7 7 8 10 8 8 8
2 1 0 1 2 3 3 3 2 2 2 2 3 3 3 4 4 4 4 4 4 3 3 3 3 3 4 3 3 3 4 4 5 6 6 6 6 7 8 9 8 8 9 9
Wind_Direction
252 217 187 215 236 246 248 253 261 253 147 131 121 128 135 131 125 127 137 152 149 148 150 158 159 161 168 172 177 182 178 189 197 201 202 204 209 208 207 207 212 210 214 216
251 244 216 219 226 235 243 247 252 249 116 109 103 109 109 99 98 109 123 135 128 134 137 142 144 146 156 157 159 159 167 175 178 187 192 201 207 212 211 212 218 214 217 222
251 254 253 237 232 236 234 240 246 233 119 120 111 101 91 92 88 80 86 85 85 83 97 104 109 117 125 118 108 102 98 91 99 116 115 156 222 202 222 230 233 235 236 237
246 246 247 253 258 261 243 204 141 123 121 117 111 97 80 76 84 78 71 74 81 81 78 80 78 78 78 78 73 75 70 65 68 74 71 60 52 51 44 23 325 291 281 274
244 236 241 256 301 321 302 127 119 122 122 118 118 111 88 77 78 83 80 75 72 73 72 69 68 70 73 68 66 63 57 49 46 47 57 55 48 37 32 17 345 316 303 297
236 234 230 230 39 18 21 72 101 129 137 141 148 129 111 99 91 87 82 78 77 75 72 67 63 66 73 69 65 59 55 49 43 44 45 42 39 33 21 4 344 329 326 319
227 224 155 46 62 34 229 155 117 116 129 148 143 116 120 111 101 95 90 86 82 79 74 70 68 68 69 67 62 59 56 52 43 38 50 47 30 15 358 349 340 316 304 300
242 226 131 32 60 46 65 79 112 112 115 112 110 114 117 114 110 104 98 93 88 82 78 72 71 73 70 63 59 56 54 51 38 26 24 39 17 350 336 331 315 308 314 320
359 67 73 61 64 27 11 91 106 112 117 120 123 125 123 119 113 107 100 95 91 89 83 74 67 66 69 60 53 51 44 38 26 18 13 7 347 331 330 342 348 3 5 357
86 81 67 70 78 42 354 86 98 116 123 125 124 124 122 117 112 106 102 99 98 94 89 83 75 71 70 58 45 37 24 7 337 309 296 355 333 325 347 358 10 7 353 343
88 78 64 44 37 80 81 81 96 109 115 120 121 121 118 115 112 109 104 99 97 97 95 92 88 79 71 57 36 18 357 341 323 316 325 322 291 289 294 292 240 256 303 313
70 73 100 96 77 88 94 94 97 103 107 112 116 118 116 112 108 105 101 98 95 93 91 86 80 72 64 53 34 10 350 343 335 331 340 324 314 315 275 259 225 223 234 265
66 64 87 91 85 90 93 95 95 97 101 103 104 108 107 104 100 98 94 89 84 83 82 80 77 70 59 48 28 4 336 322 324 331 334 329 327 322 321 305 253 238 242 250
75 79 84 83 86 91 95 97 96 96 96 98 99 100 99 98 95 89 82 75 71 70 67 65 62 57 47 29 9 338 317 317 320 324 324 321 321 324 326 327 327 327 258 241
77 88 95 94 93 95 98 99 98 96 95 94 94 95 95 94 91 86 77 69 60 55 52 46 46 42 28 11 359 335 323 326 338 329 316 316 326 330 331 333 333 340 346 338
88 91 94 96 96 96 96 97 97 97 95 93 91 89 89 89 86 83 80 72 65 58 53 44 36 24 16 9 347 324 315 320 318 314 312 330 345 345 341 340 341 347 345 348
99 100 100 101 99 98 96 96 97 97 97 97 98 98 97 95 94 89 75 68 70 68 66 65 43 17 12 19 352 328 327 329 321 322 349 2 356 345 343 349 349 345 343 353
89 91 92 96 98 99 99 98 98 100 103 106 108 109 114 115 108 106 96 77 79 68 60 59 41 13 20 33 2 333 325 332 343 354 359 9 351 343 353 354 348 346 341 340
89 91 91 91 92 92 94 95 97 101 105 105 102 96 90 82 84 110 91 72 86 91 71 67 40 2 24 42 358 316 328 344 353 360 359 2 353 359 358 353 349 344 339 337
88 90 92 92 92 93 92 90 88 86 85 90 91 86 77 50 10 67 97 82 64 60 74 64 33 21 21 32 345 326 352 1 3 2 2 1 357 355 355 353 349 344 340 338
89 89 94 95 92 88 84 80 82 85 79 68 54 47 38 12 13 79 116 106 76 46 60 95 55 29 25 356 318 341 16 16 7 5 4 2 356 353 355 352 346 340 339 337
84 81 75 72 70 66 70 82 93 83 59 24 14 21 18 11 72 83 75 78 87 46 49 66 54 39 10 339 346 17 28 21 11 7 7 360 355 354 355 349 342 340 341 338
70 55 44 38 38 35 34 36 48 48 30 17 358 353 1 29 52 91 92 75 82 69 64 59 47 25 352 340 17 30 34 24 12 3 4 1 358 356 352 344 340 339 337 336
44 34 27 13 0 9 24 21 35 36 14 5 23 45 58 76 79 80 91 92 78 80 82 78 37 5 334 357 29 37 38 25 12 4 7 3 357 357 353 346 344 345 344 345
23 3 5 341 331 358 20 3 20 38 44 59 54 56 60 66 77 85 93 102 117 125 115 118 135 327 351 41 41 35 42 32 9 355 360 1 1 0 358 354 354 356 355 355
346 331 17 353 357 343 342 2 10 25 38 78 79 69 80 92 101 109 118 121 116 110 101 116 120 181 51 56 53 31 31 38 6 5 14 10 7 5 3 1 3 4 358 360
271 293 29 340 4 5 3 9 14 19 28 59 83 83 87 95 103 110 111 115 115 100 88 81 71 62 53 48 45 37 33 30 24 17 14 16 13 7 8 5 7 7 3 4